Location: Cormont
(50.5693°N, 1.7416°E)
Time: 02:52:15
(UTC+00:00)

NOSS 3-2 (C) - Pass Details

Date: 21 October 2019
Orbit: 819 x 1394 km, 63.4° (Epoch: 19 November)

Event Time Altitude Azimuth Distance (km) Brightness Sun altitude
Rises 19:48:09 0° 226° (SW) 3,432 6.7 -28.8°
Reaches altitude 10° 19:50:30 10° 228° (SW) 2,546 6.0 -29.1°
Maximum altitude 19:56:25 79° 316° (NW) 986 3.4 -30.0°
Enters shadow 19:57:05 71° 13° (NNE) 1,032 3.5 -30.1°
